This demonstration page uses our WeatherBlox Daily Observations layout. Learn more.

Left ArrowRight Arrow

38.83388, -104.82136

Hourly Observations for January 9, 2022

Temp ( °F °C ) Dew Point ( °F °C ) Humidity (%) Winds ( mph kmh ) Pressure ( in mb ) Visibility ( mi km ) Precip ( " mm )
12:54 am 00:54 Mostly Cloudy 29 -1.7 19 -7.2 66 66 ESE 5 7 30.26 1025 10 16 0.00 0.00
1:28 am 01:28 Mostly Cloudy 26 -3.3 21 -6.1 81 81 ESE 5 7 30.46 1032 10 16 0.00 0.00
1:54 am 01:54 Cloudy 27 -2.8 23 -5 85 85 SE 6 9 30.35 1028 10 16 0.00 0.00
1:59 am 01:59 Cloudy 27 -2.8 23 -5 85 85 E 6 9 30.46 1031 10 16 0.00 0.00
2:54 am 02:54 Cloudy 28 -2.2 23 -5 81 81 ESE 6 9 30.37 1029 10 16 0.00 0.00
3:54 am 03:54 Cloudy 28 -2.2 22 -5.6 78 78 SSE 7 11 30.40 1029 10 16 0.00 0.00
4:28 am 04:28 Cloudy with Light Wintry Mix 27 -2.8 22 -5.6 81 81 SSE 13 20 30.47 1032 9 14 0.00 0.00
4:54 am 04:54 Cloudy with Light Snow 27 -2.8 22 -5.6 81 81 SE 12 19 30.43 1031 9 14 0.00 0.00
5:11 am 05:11 Cloudy with Light Wintry Mix 27 -2.8 21 -6.1 78 78 SSE 13 20 30.49 1032 9 14 0.00 0.00
5:54 am 05:54 Cloudy with Light Wintry Mix 26 -3.3 21 -6.1 81 81 SSE 9 15 30.49 1032 9 14 0.00 0.00
6:54 am 06:54 Cloudy with Light Wintry Mix 25 -3.9 20 -6.7 81 81 S 14 22 30.51 1033 8 13 0.00 0.00
7:03 am 07:03 Cloudy with Light Snow 25 -3.9 19 -7.2 78 78 S 14 22 30.57 1035 10 16 0.00 0.00
7:23 am 07:23 Cloudy with Light Wintry Mix 25 -3.9 19 -7.2 78 78 S 13 20 30.57 1035 7 11 0.00 0.00
7:54 am 07:54 Cloudy with Light Wintry Mix 24 -4.4 20 -6.7 84 84 SSE 12 19 30.54 1034 2 3 0.00 0.00
8:17 am 08:17 Cloudy with Light Wintry Mix 24 -4.4 19 -7.2 81 81 S 14 22 30.60 1036 3 5 0.00 0.00
8:54 am 08:54 Cloudy with Light Wintry Mix 24 -4.4 18 -7.8 77 77 SSE 13 20 30.55 1034 4 6 0.00 0.00
9:54 am 09:54 Cloudy with Light Wintry Mix 25 -3.9 17 -8.3 72 72 SSE 10 17 30.58 1035 6 10 0.00 0.00
10:26 am 10:26 Cloudy with Light Snow 25 -3.9 17 -8.3 72 72 SSE 7 11 30.62 1037 8 13 0.00 0.00
10:54 am 10:54 Cloudy with Light Snow 26 -3.3 19 -7.2 75 75 S 5 7 30.57 1035 8 13 0.00 0.00
11:03 am 11:03 Cloudy 26 -3.3 18 -7.8 71 71 S 3 6 30.60 1036 8 13 0.00 0.00
11:54 am 11:54 Cloudy 28 -2.2 20 -6.7 72 72 VRB 3 6 30.55 1034 9 14 0.00 0.00
12:54 pm 12:54 Cloudy 29 -1.7 22 -5.6 75 75 WSW 7 11 30.54 1034 8 13 0.00 0.00
1:54 pm 13:54 Mostly Cloudy 30 -1.1 23 -5 75 75 VRB 5 7 30.53 1034 7 11 0.00 0.00
2:23 pm 14:23 Partly Cloudy 30 -1.1 23 -5 75 75 VRB 3 6 30.51 1033 8 13 0.00 0.00
2:54 pm 14:54 Mostly Sunny 33 0.6 23 -5 66 66 VRB 3 6 30.53 1034 10 16 0.00 0.00
3:54 pm 15:54 Mostly Sunny 34 1.1 23 -5 64 64 VRB 3 6 30.54 1034 10 16 0.00 0.00
4:54 pm 16:54 Sunny 31 -0.6 22 -5.6 69 69 S 3 6 30.58 1036 10 16 0.00 0.00
5:54 pm 17:54 Clear 29 -1.7 21 -6.1 72 72 Calm 30.62 1037 10 16 0.00 0.00
6:54 pm 18:54 Clear 24 -4.4 18 -7.8 77 77 N 6 9 30.68 1039 10 16 0.00 0.00
7:54 pm 19:54 Clear 25 -3.9 17 -8.3 72 72 N 6 9 30.70 1040 10 16 0.00 0.00
8:54 pm 20:54 Clear 27 -2.8 15 -9.4 61 61 NW 6 9 30.71 1040 10 16 0.00 0.00
9:54 pm 21:54 Clear 32 0 15 -9.4 50 50 NNW 7 11 30.69 1039 10 16 0.00 0.00
10:54 pm 22:54 Clear 31 -0.6 13 -10.6 47 47 WNW 6 9 30.70 1040 10 16 0.00 0.00
11:54 pm 23:54 Clear 24 -4.4 10 -12.2 55 55 N 6 9 30.73 1041 10 16 0.00 0.00

Powered by AerisWeather